Time,TemperatureF,DewpointF,PressureIn,WindDirection,WindDirectionDegrees,WindSpeedMPH,WindSpeedGustMPH,Humidity,HourlyPrecipIn,Conditions,Clouds,dailyrainin,SoftwareType,DateUTC
2013-04-12 00:00:00,0.0,-69.2,30.03,NW,324,2.0,7.0,2,0.00,CLR,CLR,0.00,WeatherDisplay:10.37,2013-04-12 07:00:00,
2013-04-12 00:05:00,0.0,-69.2,30.03,NW,313,6.9,6.9,2,0.00,CLR,,0.00,WeatherDisplay:10.37,2013-04-12 07:05:00,
2013-04-12 00:10:00,0.0,-69.2,30.03,NW,316,5.8,0.0,2,0.00,CLR,,0.00,WeatherDisplay:10.37,2013-04-12 07:10:00,
2013-04-12 00:15:00,0.0,-69.2,30.03,NNW,328,3.0,7.0,2,0.00,CLR,CLR,0.00,WeatherDisplay:10.37,2013-04-12 07:15:00,
2013-04-12 00:20:00,0.0,-69.2,30.03,NW,316,4.6,4.6,2,0.00,CLR,,0.00,WeatherDisplay:10.37,2013-04-12 07:20:00,
2013-04-12 00:25:00,0.0,-69.2,30.03,NW,313,5.8,5.8,2,0.00,CLR,,0.00,WeatherDisplay:10.37,2013-04-12 07:25:00,
2013-04-12 00:30:00,0.0,-69.2,30.02,NNW,340,8.1,8.1,2,0.00,CLR,,0.00,WeatherDisplay:10.37,2013-04-12 07:30:00,
2013-04-12 00:35:00,0.0,-69.2,30.02,NNW,330,3.0,7.0,2,0.00,CLR,CLR,0.00,WeatherDisplay:10.37,2013-04-12 07:35:00,
2013-04-12 00:40:00,0.0,-69.2,30.02,NNW,339,5.8,5.8,2,0.00,CLR,,0.00,WeatherDisplay:10.37,2013-04-12 07:40:00,
2013-04-12 00:45:00,0.0,-69.2,30.02,NW,326,3.0,7.0,2,0.00,CLR,CLR,0.00,WeatherDisplay:10.37,2013-04-12 07:45:00,
2013-04-12 00:50:00,0.0,-69.2,30.02,NW,322,6.9,6.9,2,0.00,CLR,,0.00,WeatherDisplay:10.37,2013-04-12 07:50:00,
2013-04-12 00:55:00,0.0,-69.2,30.02,NNW,332,2.0,7.0,2,0.00,CLR,CLR,0.00,WeatherDisplay:10.37,2013-04-12 07:55:00,
2013-04-12 01:00:00,0.0,-69.2,30.02,NNW,329,0.0,5.0,2,0.00,CLR,CLR,0.00,WeatherDisplay:10.37,2013-04-12 08:00:00,
2013-04-12 01:05:00,0.0,-69.2,30.02,NW,315,5.8,5.8,2,0.00,CLR,,0.00,WeatherDisplay:10.37,2013-04-12 08:05:00,
2013-04-12 01:10:00,0.0,-69.2,30.02,NNW,339,4.6,4.6,2,0.00,CLR,,0.00,WeatherDisplay:10.37,2013-04-12 08:10:00,
2013-04-12 01:15:00,0.0,-69.2,30.02,NNW,337,3.3,3.3,2,0.00,CLR,,0.00,WeatherDisplay:10.37,2013-04-12 08:15:00,
2013-04-12 01:20:00,0.0,-69.2,30.02,NW,326,4.6,4.6,2,0.00,CLR,,0.00,WeatherDisplay:10.37,2013-04-12 08:20:00,
2013-04-12 01:25:00,0.0,-69.2,30.02,NW,316,5.2,5.2,2,0.00,CLR,,0.00,WeatherDisplay:10.37,2013-04-12 08:25:00,
2013-04-12 01:30:00,0.0,-69.2,30.02,NNW,342,4.6,4.6,2,0.00,CLR,,0.00,WeatherDisplay:10.37,2013-04-12 08:30:00,
2013-04-12 01:35:00,0.0,-69.2,30.02,NNW,332,4.6,4.6,2,0.00,CLR,,0.00,WeatherDisplay:10.37,2013-04-12 08:35:00,
2013-04-12 01:40:00,0.0,-69.2,30.02,NNW,339,6.9,6.9,2,0.00,CLR,,0.00,WeatherDisplay:10.37,2013-04-12 08:40:00,
2013-04-12 01:45:00,0.0,-69.2,30.02,NNW,332,5.0,7.0,2,0.00,CLR,CLR,0.00,WeatherDisplay:10.37,2013-04-12 08:45:00,
2013-04-12 01:50:00,0.0,-69.2,30.02,NNW,337,5.5,5.5,2,0.00,CLR,,0.00,WeatherDisplay:10.37,2013-04-12 08:50:00,
2013-04-12 01:55:00,0.0,-69.2,30.02,NNW,336,5.0,8.0,2,0.00,CLR,CLR,0.00,WeatherDisplay:10.37,2013-04-12 08:55:00,
2013-04-12 02:00:00,0.0,-69.2,30.02,NNW,336,3.0,7.0,2,0.00,CLR,CLR,0.00,WeatherDisplay:10.37,2013-04-12 09:00:00,
2013-04-12 02:05:00,0.0,-69.2,30.01,NNW,346,6.9,6.9,2,0.00,CLR,,0.00,WeatherDisplay:10.37,2013-04-12 09:05:00,
2013-04-12 02:10:00,0.0,-69.2,30.01,NW,322,3.7,3.7,2,0.00,CLR,,0.00,WeatherDisplay:10.37,2013-04-12 09:10:00,
2013-04-12 02:15:00,0.0,-69.2,30.01,NNW,335,2.0,6.0,2,0.00,CLR,CLR,0.00,WeatherDisplay:10.37,2013-04-12 09:15:00,
2013-04-12 02:20:00,0.0,-69.2,30.01,NW,323,4.6,4.6,2,0.00,CLR,,0.00,WeatherDisplay:10.37,2013-04-12 09:20:00,
2013-04-12 02:25:00,0.0,-69.2,30.01,NNW,340,5.8,5.8,2,0.00,CLR,,0.00,WeatherDisplay:10.37,2013-04-12 09:25:00,
2013-04-12 02:30:00,0.0,-69.2,30.01,NNW,342,8.1,8.1,2,0.00,CLR,,0.00,WeatherDisplay:10.37,2013-04-12 09:30:00,
2013-04-12 02:35:00,0.0,-69.2,30.00,North,350,5.8,5.8,2,0.00,CLR,,0.00,WeatherDisplay:10.37,2013-04-12 09:35:00,
2013-04-12 02:40:00,0.0,-69.2,30.00,NNW,342,5.8,5.8,2,0.00,CLR,,0.00,WeatherDisplay:10.37,2013-04-12 09:40:00,
2013-04-12 02:45:00,0.0,-69.2,30.00,NNW,337,5.0,8.0,2,0.00,CLR,CLR,0.00,WeatherDisplay:10.37,2013-04-12 09:45:00,
2013-04-12 02:50:00,0.0,-69.2,30.00,NNW,336,5.0,9.0,2,0.00,CLR,CLR,0.00,WeatherDisplay:10.37,2013-04-12 09:50:00,
2013-04-12 02:55:00,0.0,-69.2,30.00,NNW,346,6.9,6.9,2,0.00,CLR,,0.00,WeatherDisplay:10.37,2013-04-12 09:55:00,
2013-04-12 03:00:00,0.0,-69.2,30.00,NNW,341,5.0,7.0,2,0.00,CLR,CLR,0.00,WeatherDisplay:10.37,2013-04-12 10:00:00,
2013-04-12 03:05:00,0.0,-69.2,30.00,NNW,333,5.8,5.8,2,0.00,CLR,,0.00,WeatherDisplay:10.37,2013-04-12 10:05:00,
2013-04-12 03:10:00,0.0,-69.2,30.00,NW,315,4.6,4.6,2,0.00,CLR,,0.00,WeatherDisplay:10.37,2013-04-12 10:10:00,
2013-04-12 03:15:00,0.0,-69.2,30.00,NNW,332,5.5,5.6,2,0.00,CLR,,0.00,WeatherDisplay:10.37,2013-04-12 10:15:00,
2013-04-12 03:20:00,0.0,-69.2,30.00,NNW,338,5.0,7.0,2,0.00,CLR,CLR,0.00,WeatherDisplay:10.37,2013-04-12 10:20:00,
2013-04-12 03:25:00,0.0,-69.2,29.99,NNW,338,3.0,7.0,2,0.00,CLR,CLR,0.00,WeatherDisplay:10.37,2013-04-12 10:25:00,
2013-04-12 03:30:00,0.0,-69.2,29.99,NNW,346,5.8,5.8,2,0.00,CLR,,0.00,WeatherDisplay:10.37,2013-04-12 10:30:00,
2013-04-12 03:35:00,0.0,-69.2,29.99,NNW,343,1.0,5.0,2,0.00,CLR,CLR,0.00,WeatherDisplay:10.37,2013-04-12 10:35:00,
2013-04-12 03:40:00,0.0,-69.2,29.99,NNW,332,0.0,0.0,2,0.00,CLR,,0.00,WeatherDisplay:10.37,2013-04-12 10:40:00,
2013-04-12 03:45:00,0.0,-69.2,29.99,NNW,333,0.0,0.0,2,0.00,CLR,CLR,0.00,WeatherDisplay:10.37,2013-04-12 10:45:00,
2013-04-12 03:50:00,0.0,-69.2,29.99,NNW,329,2.3,0.0,2,0.00,CLR,,0.00,WeatherDisplay:10.37,2013-04-12 10:50:00,
2013-04-12 03:55:00,0.0,-69.2,29.99,NNW,330,0.0,0.0,2,0.00,CLR,CLR,0.00,WeatherDisplay:10.37,2013-04-12 10:55:00,
2013-04-12 04:00:00,0.0,-69.2,29.99,NW,309,3.5,3.5,2,0.00,CLR,,0.00,WeatherDisplay:10.37,2013-04-12 11:00:00,
2013-04-12 04:05:00,0.0,-69.2,30.00,NW,309,0.0,0.0,2,0.00,CLR,,0.00,WeatherDisplay:10.37,2013-04-12 11:05:00,
2013-04-12 04:10:00,0.0,-69.2,29.99,NW,309,0.0,0.0,2,0.00,CLR,CLR,0.00,WeatherDisplay:10.37,2013-04-12 11:10:00,
2013-04-12 04:15:00,0.0,-69.2,30.00,NW,309,0.0,0.0,2,0.00,CLR,CLR,0.00,WeatherDisplay:10.37,2013-04-12 11:15:00,
2013-04-12 04:20:00,0.0,-69.2,30.00,NW,309,0.0,0.0,2,0.00,CLR,,0.00,WeatherDisplay:10.37,2013-04-12 11:20:00,
2013-04-12 04:25:00,0.0,-69.2,29.99,NW,314,1.0,3.0,2,0.00,CLR,CLR,0.00,WeatherDisplay:10.37,2013-04-12 11:25:00,
2013-04-12 04:30:00,0.0,-69.2,29.99,NW,326,1.2,0.0,2,0.00,CLR,,0.00,WeatherDisplay:10.37,2013-04-12 11:30:00,
2013-04-12 04:35:00,0.0,-69.2,29.99,NW,320,0.0,0.0,2,0.00,CLR,,0.00,WeatherDisplay:10.37,2013-04-12 11:35:00,
2013-04-12 04:40:00,0.0,-69.2,29.99,NW,319,2.3,2.3,2,0.00,CLR,,0.00,WeatherDisplay:10.37,2013-04-12 11:40:00,
2013-04-12 04:45:00,0.0,-69.2,29.99,NW,318,0.0,0.0,2,0.00,CLR,,0.00,WeatherDisplay:10.37,2013-04-12 11:45:00,
2013-04-12 04:50:00,0.0,-69.2,29.99,NW,320,0.0,0.0,2,0.00,CLR,,0.00,WeatherDisplay:10.37,2013-04-12 11:50:00,
2013-04-12 04:55:00,0.0,-69.2,29.99,NW,320,0.0,0.0,2,0.00,CLR,,0.00,WeatherDisplay:10.37,2013-04-12 11:55:00,
2013-04-12 05:00:00,0.0,-69.2,29.99,NW,320,0.0,0.0,2,0.00,CLR,,0.00,WeatherDisplay:10.37,2013-04-12 12:00:00,
2013-04-12 05:05:00,0.0,-69.2,29.99,NW,320,0.0,0.0,2,0.00,CLR,CLR,0.00,WeatherDisplay:10.37,2013-04-12 12:05:00,
2013-04-12 05:10:00,0.0,-69.2,29.99,NW,320,0.0,0.0,2,0.00,CLR,,0.00,WeatherDisplay:10.37,2013-04-12 12:10:00,
2013-04-12 05:15:00,0.0,-69.2,29.99,NW,320,0.0,0.0,2,0.00,CLR,CLR,0.00,WeatherDisplay:10.37,2013-04-12 12:15:00,
2013-04-12 05:20:00,0.0,-69.2,29.99,NW,320,0.0,0.0,2,0.00,CLR,,0.00,WeatherDisplay:10.37,2013-04-12 12:20:00,
2013-04-12 05:25:00,0.0,-69.2,29.98,NW,320,0.0,0.0,2,0.00,CLR,,0.00,WeatherDisplay:10.37,2013-04-12 12:25:00,
2013-04-12 05:30:00,0.0,-69.2,29.98,NW,320,0.0,0.0,2,0.00,CLR,,0.00,WeatherDisplay:10.37,2013-04-12 12:30:00,
2013-04-12 05:35:00,0.0,-69.2,29.98,NW,320,0.0,0.0,2,0.00,CLR,,0.00,WeatherDisplay:10.37,2013-04-12 12:35:00,
2013-04-12 05:40:00,0.0,-69.2,29.97,NW,320,0.0,0.0,2,0.00,CLR,,0.00,WeatherDisplay:10.37,2013-04-12 12:40:00,
2013-04-12 05:45:00,0.0,-69.2,29.97,NW,320,0.0,0.0,2,0.00,CLR,,0.00,WeatherDisplay:10.37,2013-04-12 12:45:00,
2013-04-12 05:50:00,0.0,-69.2,29.97,NW,320,0.0,0.0,2,0.00,CLR,CLR,0.00,WeatherDisplay:10.37,2013-04-12 12:50:00,
2013-04-12 05:55:00,0.0,-69.2,29.97,NW,320,0.0,0.0,2,0.00,CLR,CLR,0.00,WeatherDisplay:10.37,2013-04-12 12:55:00,
2013-04-12 06:00:00,0.0,-69.2,29.97,NW,320,0.0,0.0,2,0.00,CLR,CLR,0.00,WeatherDisplay:10.37,2013-04-12 13:00:00,
2013-04-12 06:05:00,0.0,-69.2,29.97,NW,320,0.0,0.0,2,0.00,CLR,CLR,0.00,WeatherDisplay:10.37,2013-04-12 13:05:00,
2013-04-12 06:10:00,0.0,-69.2,29.97,NW,320,0.0,0.0,2,0.00,CLR,,0.00,WeatherDisplay:10.37,2013-04-12 13:10:00,
2013-04-12 06:15:00,0.0,-69.2,29.97,NW,320,0.0,0.0,2,0.00,CLR,,0.00,WeatherDisplay:10.37,2013-04-12 13:15:00,
2013-04-12 06:20:00,0.0,-69.2,29.97,NW,320,0.0,0.0,2,0.00,CLR,CLR,0.00,WeatherDisplay:10.37,2013-04-12 13:20:00,
2013-04-12 06:25:00,0.0,-69.2,29.97,NW,320,0.0,0.0,2,0.00,CLR,CLR,0.00,WeatherDisplay:10.37,2013-04-12 13:25:00,
2013-04-12 06:30:00,0.0,-69.2,29.97,NW,320,0.0,0.0,2,0.00,CLR,,0.00,WeatherDisplay:10.37,2013-04-12 13:30:00,
2013-04-12 06:35:00,0.0,-69.2,29.97,NW,320,0.0,0.0,2,0.00,CLR,,0.00,WeatherDisplay:10.37,2013-04-12 13:35:00,
2013-04-12 06:40:00,0.0,-69.2,29.97,NW,320,0.0,0.0,2,0.00,CLR,CLR,0.00,WeatherDisplay:10.37,2013-04-12 13:40:00,
2013-04-12 06:45:00,0.0,-69.2,29.96,NW,320,0.0,0.0,2,0.00,CLR,,0.00,WeatherDisplay:10.37,2013-04-12 13:45:00,
2013-04-12 06:50:00,0.0,-69.2,29.97,NW,320,0.0,0.0,2,0.00,CLR,,0.00,WeatherDisplay:10.37,2013-04-12 13:50:00,
2013-04-12 06:55:00,0.0,-69.2,29.96,NW,320,0.0,0.0,2,0.00,CLR,,0.00,WeatherDisplay:10.37,2013-04-12 13:55:00,
2013-04-12 07:00:00,0.0,-69.2,29.96,NW,320,0.0,0.0,2,0.00,CLR,CLR,0.00,WeatherDisplay:10.37,2013-04-12 14:00:00,
2013-04-12 07:05:00,0.0,-69.2,29.96,NW,320,0.0,0.0,2,0.00,CLR,,0.00,WeatherDisplay:10.37,2013-04-12 14:05:00,
2013-04-12 07:10:00,0.0,-69.2,29.96,NW,320,0.0,0.0,2,0.00,CLR,,0.00,WeatherDisplay:10.37,2013-04-12 14:10:00,
2013-04-12 07:15:00,0.0,-69.2,29.96,NW,320,0.0,0.0,2,0.00,CLR,,0.00,WeatherDisplay:10.37,2013-04-12 14:15:00,
2013-04-12 07:20:00,0.0,-69.2,29.96,NW,320,0.0,0.0,2,0.00,CLR,,0.00,WeatherDisplay:10.37,2013-04-12 14:20:00,
2013-04-12 07:25:00,0.0,-69.2,29.96,NW,320,0.0,0.0,2,0.00,CLR,,0.00,WeatherDisplay:10.37,2013-04-12 14:25:00,
2013-04-12 07:30:00,0.0,-69.2,29.96,NW,320,0.0,0.0,2,0.00,CLR,,0.00,WeatherDisplay:10.37,2013-04-12 14:30:00,
2013-04-12 07:35:00,0.0,-69.2,29.96,NW,320,0.0,0.0,2,0.00,CLR,,0.00,WeatherDisplay:10.37,2013-04-12 14:35:00,
2013-04-12 07:40:00,0.0,-69.2,29.95,NW,320,0.0,0.0,2,0.00,CLR,,0.00,WeatherDisplay:10.37,2013-04-12 14:40:00,
2013-04-12 07:45:00,0.0,-69.2,29.95,NW,320,0.0,0.0,2,0.00,CLR,,0.00,WeatherDisplay:10.37,2013-04-12 14:45:00,
2013-04-12 07:50:00,0.0,-69.2,29.95,NW,320,0.0,0.0,2,0.00,CLR,,0.00,WeatherDisplay:10.37,2013-04-12 14:50:00,
2013-04-12 07:55:00,0.0,-69.2,29.95,NW,320,0.0,0.0,2,0.00,CLR,CLR,0.00,WeatherDisplay:10.37,2013-04-12 14:55:00,
2013-04-12 08:00:00,0.0,-69.2,29.95,NW,320,0.0,0.0,2,0.00,CLR,,0.00,WeatherDisplay:10.37,2013-04-12 15:00:00,
2013-04-12 08:05:00,0.0,-69.2,29.95,NW,320,0.0,0.0,2,0.00,CLR,,0.00,WeatherDisplay:10.37,2013-04-12 15:05:00,
2013-04-12 08:10:00,0.0,-69.2,29.95,NW,320,0.0,0.0,2,0.00,CLR,,0.00,WeatherDisplay:10.37,2013-04-12 15:10:00,
2013-04-12 08:15:00,0.0,-69.2,29.95,NW,320,0.0,0.0,2,0.00,CLR,CLR,0.00,WeatherDisplay:10.37,2013-04-12 15:15:00,
2013-04-12 08:20:00,0.0,-69.2,29.95,NW,320,0.0,0.0,2,0.00,CLR,,0.00,WeatherDisplay:10.37,2013-04-12 15:20:00,
2013-04-12 08:25:00,0.0,-69.2,29.94,WNW,295,0.0,1.0,2,0.00,CLR,CLR,0.00,WeatherDisplay:10.37,2013-04-12 15:25:00,
2013-04-12 08:30:00,0.0,-69.2,29.94,South,178,0.0,0.0,2,0.00,CLR,,0.00,WeatherDisplay:10.37,2013-04-12 15:30:00,
2013-04-12 08:35:00,0.0,-69.2,29.94,South,178,0.0,0.0,2,0.00,CLR,,0.00,WeatherDisplay:10.37,2013-04-12 15:35:00,
2013-04-12 08:40:00,0.0,-69.2,29.94,South,178,0.0,0.0,2,0.00,CLR,,0.00,WeatherDisplay:10.37,2013-04-12 15:40:00,
2013-04-12 08:45:00,0.0,-69.2,29.94,South,178,0.0,0.0,2,0.00,CLR,,0.00,WeatherDisplay:10.37,2013-04-12 15:45:00,
2013-04-12 08:50:00,0.0,-69.2,29.94,South,178,0.0,0.0,2,0.00,CLR,,0.00,WeatherDisplay:10.37,2013-04-12 15:50:00,
2013-04-12 08:55:00,0.0,-69.2,29.94,South,178,0.0,0.0,2,0.00,CLR,,0.00,WeatherDisplay:10.37,2013-04-12 15:55:00,
2013-04-12 09:00:00,0.0,-69.2,29.94,North,3,3.5,3.5,2,0.00,CLR,,0.00,WeatherDisplay:10.37,2013-04-12 16:00:00,
2013-04-12 09:05:00,0.0,-69.2,29.94,NNW,332,1.2,1.2,2,0.00,CLR,,0.00,WeatherDisplay:10.37,2013-04-12 16:05:00,
2013-04-12 09:10:00,0.0,-69.2,29.94,NNW,332,0.0,0.0,2,0.00,CLR,,0.00,WeatherDisplay:10.37,2013-04-12 16:10:00,
2013-04-12 09:15:00,0.0,-69.2,29.94,West,280,0.0,0.0,2,0.00,CLR,,0.00,WeatherDisplay:10.37,2013-04-12 16:15:00,
2013-04-12 09:20:00,0.0,-69.2,29.93,West,280,0.0,0.0,2,0.00,CLR,,0.00,WeatherDisplay:10.37,2013-04-12 16:20:00,
2013-04-12 09:25:00,0.0,-69.2,29.93,SSW,193,0.0,0.0,2,0.00,CLR,,0.00,WeatherDisplay:10.37,2013-04-12 16:25:00,
2013-04-12 09:30:00,0.0,-69.2,29.93,SSW,193,0.0,0.0,2,0.00,CLR,,0.00,WeatherDisplay:10.37,2013-04-12 16:30:00,
2013-04-12 09:35:00,0.0,-69.2,29.93,South,182,1.2,0.0,2,0.00,CLR,,0.00,WeatherDisplay:10.37,2013-04-12 16:35:00,
2013-04-12 09:40:00,0.0,-69.2,29.93,South,182,0.0,0.0,2,0.00,CLR,,0.00,WeatherDisplay:10.37,2013-04-12 16:40:00,
2013-04-12 09:45:00,0.0,-69.2,29.93,SW,220,5.8,5.8,2,0.00,CLR,,0.00,WeatherDisplay:10.37,2013-04-12 16:45:00,
2013-04-12 09:50:00,0.0,-69.2,29.93,South,191,3.3,3.3,2,0.00,CLR,,0.00,WeatherDisplay:10.37,2013-04-12 16:50:00,
2013-04-12 09:55:00,0.0,-69.2,29.92,SE,128,0.0,0.0,2,0.00,CLR,,0.00,WeatherDisplay:10.37,2013-04-12 16:55:00,
2013-04-12 10:00:00,0.0,-69.2,29.92,ENE,76,2.3,2.3,2,0.00,CLR,,0.00,WeatherDisplay:10.37,2013-04-12 17:00:00,
2013-04-12 10:05:00,0.0,-69.2,29.92,SE,136,3.5,3.5,2,0.00,CLR,,0.00,WeatherDisplay:10.37,2013-04-12 17:05:00,
2013-04-12 10:10:00,0.0,-69.2,29.91,ESE,120,3.5,3.5,2,0.00,CLR,,0.00,WeatherDisplay:10.37,2013-04-12 17:10:00,
2013-04-12 10:15:00,0.0,-69.2,29.91,SE,131,2.3,2.3,2,0.00,CLR,,0.00,WeatherDisplay:10.37,2013-04-12 17:15:00,
2013-04-12 10:20:00,0.0,-69.2,29.91,SE,145,0.0,0.0,2,0.00,CLR,,0.00,WeatherDisplay:10.37,2013-04-12 17:20:00,
2013-04-12 10:25:00,0.0,-69.2,29.91,SE,145,0.0,0.0,2,0.00,CLR,,0.00,WeatherDisplay:10.37,2013-04-12 17:25:00,
2013-04-12 10:30:00,0.0,-69.2,29.91,SSW,205,0.0,0.0,2,0.00,CLR,,0.00,WeatherDisplay:10.37,2013-04-12 17:30:00,
2013-04-12 10:36:00,0.0,-69.2,29.91,South,185,5.2,5.2,2,0.00,CLR,,0.00,WeatherDisplay:10.37,2013-04-12 17:36:00,
2013-04-12 10:42:00,0.0,-69.2,29.90,SSE,162,4.2,4.2,2,0.00,CLR,,0.00,WeatherDisplay:10.37,2013-04-12 17:42:00,
2013-04-12 10:47:00,0.0,-69.2,29.90,SE,126,5.8,5.8,2,0.00,CLR,,0.00,WeatherDisplay:10.37,2013-04-12 17:47:00,
2013-04-12 10:52:00,0.0,-69.2,29.90,SW,217,4.6,4.6,2,0.00,CLR,,0.00,WeatherDisplay:10.37,2013-04-12 17:52:00,
2013-04-12 10:58:00,0.0,-69.2,29.89,South,174,4.6,4.6,2,0.00,CLR,,0.00,WeatherDisplay:10.37,2013-04-12 17:58:00,
2013-04-12 11:03:00,0.0,-69.2,29.89,South,184,6.9,6.9,2,0.00,CLR,,0.00,WeatherDisplay:10.37,2013-04-12 18:03:00,
2013-04-12 11:08:00,0.0,-69.2,29.89,SE,136,8.1,8.1,2,0.00,CLR,,0.00,WeatherDisplay:10.37,2013-04-12 18:08:00,
2013-04-12 11:13:00,0.0,-69.2,29.89,SE,124,7.1,7.1,2,0.00,CLR,,0.00,WeatherDisplay:10.37,2013-04-12 18:13:00,
2013-04-12 11:18:00,0.0,-69.2,29.89,SE,134,3.6,3.6,2,0.00,CLR,,0.00,WeatherDisplay:10.37,2013-04-12 18:18:00,
2013-04-12 11:24:00,0.0,-69.2,29.89,SSE,157,2.3,0.0,2,0.00,CLR,,0.00,WeatherDisplay:10.37,2013-04-12 18:24:00,
2013-04-12 11:29:00,0.0,-69.2,29.89,SSW,192,5.8,5.8,2,0.00,CLR,,0.00,WeatherDisplay:10.37,2013-04-12 18:29:00,
2013-04-12 12:26:00,0.0,-69.2,29.87,South,186,6.9,6.9,2,0.00,CLR,,0.00,WeatherDisplay:10.37,2013-04-12 19:26:00,
2013-04-12 12:31:00,0.0,-69.2,29.87,SSW,199,1.2,1.2,2,0.00,CLR,,0.00,WeatherDisplay:10.37,2013-04-12 19:31:00,
2013-04-12 12:37:00,0.0,-69.2,29.87,South,176,3.0,3.0,2,0.00,CLR,,0.00,WeatherDisplay:10.37,2013-04-12 19:37:00,
2013-04-12 12:42:00,0.0,-69.2,29.87,SE,124,1.2,1.2,2,0.00,CLR,,0.00,WeatherDisplay:10.37,2013-04-12 19:42:00,
2013-04-12 12:47:00,0.0,-69.2,29.87,SSE,167,2.3,2.3,2,0.00,CLR,,0.00,WeatherDisplay:10.37,2013-04-12 19:47:00,
2013-04-12 12:52:00,0.0,-69.2,29.87,SW,226,1.2,1.2,2,0.00,CLR,,0.00,WeatherDisplay:10.37,2013-04-12 19:52:00,
2013-04-12 12:57:00,0.0,-69.2,29.86,WNW,301,3.5,3.5,2,0.00,CLR,,0.00,WeatherDisplay:10.37,2013-04-12 19:57:00,
2013-04-12 13:02:00,0.0,-69.2,29.86,SE,133,2.3,2.3,2,0.00,CLR,,0.00,WeatherDisplay:10.37,2013-04-12 20:02:00,
2013-04-12 13:07:00,0.0,-69.2,29.86,SE,133,0.0,0.0,2,0.00,CLR,,0.00,WeatherDisplay:10.37,2013-04-12 20:07:00,
2013-04-12 13:12:00,0.0,-69.2,29.86,SSE,165,3.7,3.7,2,0.00,CLR,,0.00,WeatherDisplay:10.37,2013-04-12 20:12:00,
2013-04-12 13:17:00,0.0,-69.2,29.85,NW,306,2.3,2.3,2,0.00,CLR,,0.00,WeatherDisplay:10.37,2013-04-12 20:17:00,
2013-04-12 13:22:00,0.0,-69.2,29.86,SW,216,0.0,0.0,2,0.00,CLR,,0.00,WeatherDisplay:10.37,2013-04-12 20:22:00,
2013-04-12 13:27:00,0.0,-69.2,29.85,SSE,165,4.6,4.6,2,0.00,CLR,,0.00,WeatherDisplay:10.37,2013-04-12 20:27:00,
2013-04-12 13:32:00,0.0,-69.2,29.85,South,179,4.6,4.6,2,0.00,CLR,,0.00,WeatherDisplay:10.37,2013-04-12 20:32:00,
2013-04-12 13:37:00,0.0,-69.2,29.85,NW,320,4.6,4.6,2,0.00,CLR,,0.00,WeatherDisplay:10.37,2013-04-12 20:37:00,
2013-04-12 13:42:00,0.0,-69.2,29.85,East,96,5.8,5.8,2,0.00,CLR,,0.00,WeatherDisplay:10.37,2013-04-12 20:42:00,
2013-04-12 13:47:00,0.0,-69.2,29.84,SSW,195,5.8,5.8,2,0.00,CLR,,0.00,WeatherDisplay:10.37,2013-04-12 20:47:00,
2013-04-12 13:52:00,0.0,-69.2,29.84,South,174,4.6,4.6,2,0.00,CLR,,0.00,WeatherDisplay:10.37,2013-04-12 20:52:00,
2013-04-12 13:57:00,0.0,-69.2,29.84,SSW,202,4.6,4.6,2,0.00,CLR,,0.00,WeatherDisplay:10.37,2013-04-12 20:57:00,
2013-04-12 14:02:00,0.0,-69.2,29.84,SE,143,4.6,4.6,2,0.00,CLR,,0.00,WeatherDisplay:10.37,2013-04-12 21:02:00,
2013-04-12 14:07:00,0.0,-69.2,29.83,SSE,158,5.8,5.8,2,0.00,CLR,,0.00,WeatherDisplay:10.37,2013-04-12 21:07:00,
2013-04-12 14:12:00,0.0,-69.2,29.83,South,171,2.4,2.4,2,0.00,CLR,,0.00,WeatherDisplay:10.37,2013-04-12 21:12:00,
2013-04-12 14:17:00,0.0,-69.2,29.83,West,277,1.2,1.2,2,0.00,CLR,,0.00,WeatherDisplay:10.37,2013-04-12 21:17:00,
2013-04-12 14:22:00,0.0,-69.2,29.83,SE,137,4.6,4.6,2,0.00,CLR,,0.00,WeatherDisplay:10.37,2013-04-12 21:22:00,
2013-04-12 14:27:00,0.0,-69.2,29.83,South,169,4.6,4.6,2,0.00,CLR,,0.00,WeatherDisplay:10.37,2013-04-12 21:27:00,
2013-04-12 14:32:00,0.0,-69.2,29.83,South,178,5.1,5.1,2,0.00,CLR,,0.00,WeatherDisplay:10.37,2013-04-12 21:32:00,
2013-04-12 14:37:00,0.0,-69.2,29.83,SSE,165,5.8,5.8,2,0.00,CLR,,0.00,WeatherDisplay:10.37,2013-04-12 21:37:00,
2013-04-12 14:42:00,0.0,-69.2,29.83,SSE,147,8.1,8.1,2,0.00,CLR,,0.00,WeatherDisplay:10.37,2013-04-12 21:42:00,
2013-04-12 14:47:00,0.0,-69.2,29.83,SSE,160,5.8,5.8,2,0.00,CLR,,0.00,WeatherDisplay:10.37,2013-04-12 21:47:00,
2013-04-12 14:52:00,0.0,-69.2,29.82,SSE,158,6.9,6.9,2,0.00,CLR,,0.00,WeatherDisplay:10.37,2013-04-12 21:52:00,
2013-04-12 14:57:00,0.0,-69.2,29.82,SE,138,5.8,5.8,2,0.00,CLR,,0.00,WeatherDisplay:10.37,2013-04-12 21:57:00,
2013-04-12 15:02:00,0.0,-69.2,29.82,SSE,161,5.2,5.2,2,0.00,CLR,,0.00,WeatherDisplay:10.37,2013-04-12 22:02:00,
2013-04-12 15:08:00,0.0,-69.2,29.82,SSE,157,4.5,4.5,2,0.00,CLR,,0.00,WeatherDisplay:10.37,2013-04-12 22:08:00,
2013-04-12 15:13:00,0.0,-69.2,29.82,WSW,257,3.5,3.5,2,0.00,CLR,,0.00,WeatherDisplay:10.37,2013-04-12 22:13:00,
2013-04-12 15:18:00,0.0,-69.2,29.82,SSW,192,5.8,5.8,2,0.00,CLR,,0.00,WeatherDisplay:10.37,2013-04-12 22:18:00,
2013-04-12 15:23:00,0.0,-69.2,29.81,South,175,6.2,6.2,2,0.00,CLR,,0.00,WeatherDisplay:10.37,2013-04-12 22:23:00,
2013-04-12 15:28:00,0.0,-69.2,29.81,SSW,205,9.2,9.2,2,0.00,CLR,,0.00,WeatherDisplay:10.37,2013-04-12 22:28:00,
2013-04-12 15:33:00,0.0,-69.2,29.81,SW,226,6.9,6.9,2,0.00,CLR,,0.00,WeatherDisplay:10.37,2013-04-12 22:33:00,
2013-04-12 15:38:00,0.0,-69.2,29.81,South,178,6.9,6.9,2,0.00,CLR,,0.00,WeatherDisplay:10.37,2013-04-12 22:38:00,
2013-04-12 15:43:00,0.0,-69.2,29.81,SE,143,6.9,6.9,2,0.00,CLR,,0.00,WeatherDisplay:10.37,2013-04-12 22:43:00,
2013-04-12 15:48:00,0.0,-69.2,29.80,South,178,5.8,5.8,2,0.00,CLR,,0.00,WeatherDisplay:10.37,2013-04-12 22:48:00,
2013-04-12 15:53:00,0.0,-69.2,29.80,SSE,165,4.6,4.6,2,0.00,CLR,,0.00,WeatherDisplay:10.37,2013-04-12 22:53:00,
2013-04-12 15:58:00,0.0,-69.2,29.80,SW,236,4.7,4.7,2,0.00,CLR,,0.00,WeatherDisplay:10.37,2013-04-12 22:58:00,
2013-04-12 16:03:00,0.0,-69.2,29.80,South,185,8.1,8.1,2,0.00,CLR,,0.00,WeatherDisplay:10.37,2013-04-12 23:03:00,
2013-04-12 16:08:00,0.0,-69.2,29.79,SSE,158,8.5,8.5,2,0.00,CLR,,0.00,WeatherDisplay:10.37,2013-04-12 23:08:00,
2013-04-12 16:13:00,0.0,-69.2,29.79,South,188,4.6,4.6,2,0.00,CLR,,0.00,WeatherDisplay:10.37,2013-04-12 23:13:00,
2013-04-12 16:18:00,0.0,-69.2,29.79,SSE,164,7.9,7.9,2,0.00,CLR,,0.00,WeatherDisplay:10.37,2013-04-12 23:18:00,
2013-04-12 16:23:00,0.0,-69.2,29.78,South,184,4.7,4.7,2,0.00,CLR,,0.00,WeatherDisplay:10.37,2013-04-12 23:23:00,
2013-04-12 16:28:00,0.0,-69.2,29.78,South,186,8.1,8.1,2,0.00,CLR,,0.00,WeatherDisplay:10.37,2013-04-12 23:28:00,
2013-04-12 16:33:00,0.0,-69.2,29.78,South,188,4.6,4.6,2,0.00,CLR,,0.00,WeatherDisplay:10.37,2013-04-12 23:33:00,
2013-04-12 16:38:00,0.0,-69.2,29.78,ESE,120,3.0,3.0,2,0.00,CLR,,0.00,WeatherDisplay:10.37,2013-04-12 23:38:00,
2013-04-12 16:43:00,0.0,-69.2,29.78,South,189,5.8,5.8,2,0.00,CLR,,0.00,WeatherDisplay:10.37,2013-04-12 23:43:00,
2013-04-12 16:48:00,0.0,-69.2,29.77,South,189,5.8,5.8,2,0.00,CLR,,0.00,WeatherDisplay:10.37,2013-04-12 23:48:00,
2013-04-12 16:53:00,0.0,-69.2,29.77,SSE,161,6.5,6.5,2,0.00,CLR,,0.00,WeatherDisplay:10.37,2013-04-12 23:53:00,
2013-04-12 16:58:00,0.0,-69.2,29.77,SE,124,8.1,8.1,2,0.00,CLR,,0.00,WeatherDisplay:10.37,2013-04-12 23:58:00,
2013-04-12 17:03:00,0.0,-69.2,29.77,SSW,199,6.3,6.3,2,0.00,CLR,,0.00,WeatherDisplay:10.37,2013-04-13 00:03:00,
2013-04-12 17:08:00,0.0,-69.2,29.77,South,185,2.3,2.3,2,0.00,CLR,,0.00,WeatherDisplay:10.37,2013-04-13 00:08:00,
2013-04-12 17:13:00,0.0,-69.2,29.77,SSW,203,4.8,4.8,2,0.00,CLR,,0.00,WeatherDisplay:10.37,2013-04-13 00:13:00,
2013-04-12 17:18:00,0.0,-69.2,29.77,South,182,1.1,1.1,2,0.00,CLR,,0.00,WeatherDisplay:10.37,2013-04-13 00:18:00,
2013-04-12 17:23:00,0.0,-69.2,29.76,WSW,240,6.9,6.9,2,0.00,CLR,,0.00,WeatherDisplay:10.37,2013-04-13 00:23:00,
2013-04-12 17:28:00,0.0,-69.2,29.76,SSW,206,1.2,1.2,2,0.00,CLR,,0.00,WeatherDisplay:10.37,2013-04-13 00:28:00,
2013-04-12 17:33:00,0.0,-69.2,29.76,SSW,209,0.0,0.2,2,0.00,CLR,,0.00,WeatherDisplay:10.37,2013-04-13 00:33:00,
2013-04-12 17:38:00,0.0,-69.2,29.76,West,277,1.2,1.2,2,0.00,CLR,,0.00,WeatherDisplay:10.37,2013-04-13 00:38:00,
2013-04-12 17:43:00,0.0,-69.2,29.76,WSW,248,0.0,0.0,2,0.00,CLR,,0.00,WeatherDisplay:10.37,2013-04-13 00:43:00,
2013-04-12 17:48:00,0.0,-69.2,29.77,WSW,248,0.0,0.0,2,0.00,CLR,,0.00,WeatherDisplay:10.37,2013-04-13 00:48:00,
2013-04-12 17:53:00,0.0,-69.2,29.77,SW,224,0.0,0.0,2,0.00,CLR,,0.00,WeatherDisplay:10.37,2013-04-13 00:53:00,
2013-04-12 17:58:00,0.0,-69.2,29.76,SW,233,3.5,3.5,2,0.00,CLR,,0.00,WeatherDisplay:10.37,2013-04-13 00:58:00,
2013-04-12 18:03:00,0.0,-69.2,29.76,West,264,4.6,4.6,2,0.00,CLR,,0.00,WeatherDisplay:10.37,2013-04-13 01:03:00,
2013-04-12 18:08:00,0.0,-69.2,29.76,WSW,239,2.3,2.3,2,0.00,CLR,,0.00,WeatherDisplay:10.37,2013-04-13 01:08:00,
2013-04-12 18:13:00,0.0,-69.2,29.76,WSW,241,2.4,2.4,2,0.00,CLR,,0.00,WeatherDisplay:10.37,2013-04-13 01:13:00,
2013-04-12 18:18:00,0.0,-69.2,29.77,West,268,5.8,5.8,2,0.00,CLR,,0.00,WeatherDisplay:10.37,2013-04-13 01:18:00,
2013-04-12 18:23:00,0.0,-69.2,29.77,SSW,192,4.6,4.6,2,0.00,CLR,,0.00,WeatherDisplay:10.37,2013-04-13 01:23:00,
2013-04-12 18:28:00,0.0,-69.2,29.78,WSW,258,4.6,4.6,2,0.00,CLR,,0.00,WeatherDisplay:10.37,2013-04-13 01:28:00,
2013-04-12 18:33:00,0.0,-69.2,29.77,SW,229,3.2,3.2,2,0.00,CLR,,0.00,WeatherDisplay:10.37,2013-04-13 01:33:00,
2013-04-12 18:38:00,0.0,-69.2,29.77,WSW,256,2.3,2.3,2,0.00,CLR,,0.00,WeatherDisplay:10.37,2013-04-13 01:38:00,
2013-04-12 18:43:00,0.0,-69.2,29.77,West,271,3.5,3.5,2,0.00,CLR,,0.00,WeatherDisplay:10.37,2013-04-13 01:43:00,
2013-04-12 18:48:00,0.0,-69.2,29.77,West,265,0.4,0.0,2,0.00,CLR,,0.00,WeatherDisplay:10.37,2013-04-13 01:48:00,
2013-04-12 18:53:00,0.0,-69.2,29.77,WSW,256,4.6,4.6,2,0.00,CLR,,0.00,WeatherDisplay:10.37,2013-04-13 01:53:00,
2013-04-12 18:58:00,0.0,-69.2,29.77,West,271,5.8,5.8,2,0.00,CLR,,0.00,WeatherDisplay:10.37,2013-04-13 01:58:00,
2013-04-12 19:03:00,0.0,-69.2,29.77,WSW,250,5.8,5.8,2,0.00,CLR,,0.00,WeatherDisplay:10.37,2013-04-13 02:03:00,
2013-04-12 19:08:00,0.0,-69.2,29.77,SW,236,2.4,2.8,2,0.00,CLR,,0.00,WeatherDisplay:10.37,2013-04-13 02:08:00,
2013-04-12 19:13:00,0.0,-69.2,29.77,SW,220,6.0,6.0,2,0.00,CLR,,0.00,WeatherDisplay:10.37,2013-04-13 02:13:00,
2013-04-12 19:18:00,0.0,-69.2,29.77,WSW,251,0.0,0.0,2,0.00,CLR,,0.00,WeatherDisplay:10.37,2013-04-13 02:18:00,
2013-04-12 19:23:00,0.0,-69.2,29.77,SW,219,2.3,2.3,2,0.00,CLR,,0.00,WeatherDisplay:10.37,2013-04-13 02:23:00,
2013-04-12 19:28:00,0.0,-69.2,29.77,WSW,243,0.0,0.0,2,0.00,CLR,,0.00,WeatherDisplay:10.37,2013-04-13 02:28:00,
2013-04-12 19:33:00,0.0,-69.2,29.77,SW,223,2.3,2.3,2,0.00,CLR,,0.00,WeatherDisplay:10.37,2013-04-13 02:33:00,
2013-04-12 19:38:00,0.0,-69.2,29.77,SSW,210,0.0,0.0,2,0.00,CLR,,0.00,WeatherDisplay:10.37,2013-04-13 02:38:00,
2013-04-12 19:43:00,0.0,-69.2,29.77,WSW,247,0.6,0.6,2,0.00,CLR,,0.00,WeatherDisplay:10.37,2013-04-13 02:43:00,
2013-04-12 19:48:00,0.0,-69.2,29.77,WSW,251,3.5,3.5,2,0.00,CLR,,0.00,WeatherDisplay:10.37,2013-04-13 02:48:00,
2013-04-12 19:53:00,0.0,-69.2,29.77,SW,234,5.8,5.8,2,0.00,CLR,,0.00,WeatherDisplay:10.37,2013-04-13 02:53:00,
2013-04-12 19:58:00,0.0,-69.2,29.77,SSW,198,2.3,2.3,2,0.00,CLR,,0.00,WeatherDisplay:10.37,2013-04-13 02:58:00,
2013-04-12 20:03:00,0.0,-69.2,29.77,SSW,192,1.2,1.2,2,0.00,CLR,,0.00,WeatherDisplay:10.37,2013-04-13 03:03:00,
2013-04-12 20:08:00,0.0,-69.2,29.77,SW,236,3.5,3.5,2,0.00,CLR,,0.00,WeatherDisplay:10.37,2013-04-13 03:08:00,
2013-04-12 20:13:00,0.0,-69.2,29.78,SW,236,2.3,2.3,2,0.00,CLR,,0.00,WeatherDisplay:10.37,2013-04-13 03:13:00,
2013-04-12 20:18:00,0.0,-69.2,29.78,SW,216,4.6,4.6,2,0.00,CLR,,0.00,WeatherDisplay:10.37,2013-04-13 03:18:00,
2013-04-12 20:23:00,0.0,-69.2,29.79,SW,226,2.7,2.7,2,0.00,CLR,,0.00,WeatherDisplay:10.37,2013-04-13 03:23:00,
2013-04-12 20:28:00,0.0,-69.2,29.79,South,186,3.5,3.5,2,0.00,CLR,,0.00,WeatherDisplay:10.37,2013-04-13 03:28:00,
2013-04-12 20:33:00,0.0,-69.2,29.79,SW,224,5.8,5.8,2,0.00,CLR,,0.00,WeatherDisplay:10.37,2013-04-13 03:33:00,
2013-04-12 20:38:00,0.0,-69.2,29.79,SW,233,9.2,9.2,2,0.00,CLR,,0.00,WeatherDisplay:10.37,2013-04-13 03:38:00,
2013-04-12 20:43:00,0.0,-69.2,29.79,West,277,5.8,5.8,2,0.00,CLR,,0.00,WeatherDisplay:10.37,2013-04-13 03:43:00,
2013-04-12 20:48:00,0.0,-69.2,29.79,SSW,202,10.4,10.4,2,0.00,CLR,,0.00,WeatherDisplay:10.37,2013-04-13 03:48:00,
2013-04-12 20:53:00,0.0,-69.2,29.79,South,185,6.9,6.9,2,0.00,CLR,,0.00,WeatherDisplay:10.37,2013-04-13 03:53:00,
2013-04-12 20:58:00,0.0,-69.2,29.79,WSW,241,4.6,4.6,2,0.00,CLR,,0.00,WeatherDisplay:10.37,2013-04-13 03:58:00,
2013-04-12 21:00:00,0.0,-69.2,29.79,SW,216,5.8,5.8,2,0.00,CLR,,0.00,WeatherDisplay:10.37,2013-04-13 04:00:00,
2013-04-12 21:05:00,0.0,-69.2,29.79,SW,227,2.3,3.3,2,0.00,CLR,,0.00,WeatherDisplay:10.37,2013-04-13 04:05:00,
2013-04-12 21:10:00,0.0,-69.2,29.80,SW,236,5.8,5.8,2,0.00,CLR,,0.00,WeatherDisplay:10.37,2013-04-13 04:10:00,
2013-04-12 21:15:00,0.0,-69.2,29.80,SSW,213,6.9,6.9,2,0.00,CLR,,0.00,WeatherDisplay:10.37,2013-04-13 04:15:00,
2013-04-12 21:20:00,0.0,-69.2,29.79,South,191,7.1,7.8,2,0.00,CLR,,0.00,WeatherDisplay:10.37,2013-04-13 04:20:00,
2013-04-12 21:25:00,0.0,-69.2,29.79,SSE,158,8.1,8.1,2,0.00,CLR,,0.00,WeatherDisplay:10.37,2013-04-13 04:25:00,
2013-04-12 21:30:00,0.0,-69.2,29.79,South,189,6.9,6.9,2,0.00,CLR,,0.00,WeatherDisplay:10.37,2013-04-13 04:30:00,
2013-04-12 21:35:00,0.0,-69.2,29.79,SW,224,10.4,10.4,2,0.00,CLR,,0.00,WeatherDisplay:10.37,2013-04-13 04:35:00,
2013-04-12 21:40:00,0.0,-69.2,29.79,South,185,9.2,9.2,2,0.00,CLR,,0.00,WeatherDisplay:10.37,2013-04-13 04:40:00,
2013-04-12 21:45:00,0.0,-69.2,29.79,SSW,209,10.4,10.4,2,0.00,CLR,,0.00,WeatherDisplay:10.37,2013-04-13 04:45:00,
2013-04-12 21:50:00,0.0,-69.2,29.79,South,179,6.9,6.9,2,0.00,CLR,,0.00,WeatherDisplay:10.37,2013-04-13 04:50:00,
2013-04-12 21:55:00,0.0,-69.2,29.80,South,171,8.3,8.3,2,0.00,CLR,,0.00,WeatherDisplay:10.37,2013-04-13 04:55:00,
2013-04-12 22:00:00,0.0,-69.2,29.79,South,176,9.2,9.2,2,0.00,CLR,,0.00,WeatherDisplay:10.37,2013-04-13 05:00:00,
2013-04-12 22:05:00,0.0,-69.2,29.79,SSW,198,9.2,9.2,2,0.00,CLR,,0.00,WeatherDisplay:10.37,2013-04-13 05:05:00,
2013-04-12 22:10:00,0.0,-69.2,29.79,South,181,5.8,5.8,2,0.00,CLR,,0.00,WeatherDisplay:10.37,2013-04-13 05:10:00,
2013-04-12 22:15:00,0.0,-69.2,29.79,SSW,210,9.1,9.1,2,0.00,CLR,,0.00,WeatherDisplay:10.37,2013-04-13 05:15:00,
2013-04-12 22:20:00,0.0,-69.2,29.80,SSE,161,5.8,5.8,2,0.00,CLR,,0.00,WeatherDisplay:10.37,2013-04-13 05:20:00,
2013-04-12 22:25:00,0.0,-69.2,29.79,SSW,195,10.4,10.4,2,0.00,CLR,,0.00,WeatherDisplay:10.37,2013-04-13 05:25:00,
2013-04-12 22:30:00,0.0,-69.2,29.80,ESE,120,6.9,6.9,2,0.00,CLR,,0.00,WeatherDisplay:10.37,2013-04-13 05:30:00,
2013-04-12 22:35:00,0.0,-69.2,29.80,South,179,5.8,5.8,2,0.00,CLR,,0.00,WeatherDisplay:10.37,2013-04-13 05:35:00,
2013-04-12 22:40:00,0.0,-69.2,29.80,SW,216,5.7,5.7,2,0.00,CLR,,0.00,WeatherDisplay:10.37,2013-04-13 05:40:00,
2013-04-12 22:45:00,0.0,-69.2,29.80,SSE,150,8.1,8.1,2,0.00,CLR,,0.00,WeatherDisplay:10.37,2013-04-13 05:45:00,
2013-04-12 22:50:00,0.0,-69.2,29.81,WSW,240,3.5,3.5,2,0.00,CLR,,0.00,WeatherDisplay:10.37,2013-04-13 05:50:00,
2013-04-12 22:55:00,0.0,-69.2,29.81,NW,305,1.2,0.0,2,0.00,CLR,,0.00,WeatherDisplay:10.37,2013-04-13 05:55:00,
2013-04-12 23:00:00,0.0,-69.2,29.81,SW,227,5.8,5.8,2,0.00,CLR,,0.00,WeatherDisplay:10.37,2013-04-13 06:00:00,
2013-04-12 23:05:00,0.0,-69.2,29.82,South,185,4.6,4.6,2,0.00,CLR,,0.00,WeatherDisplay:10.37,2013-04-13 06:05:00,
2013-04-12 23:10:00,0.0,-69.2,29.82,WSW,241,5.8,5.8,2,0.00,CLR,,0.00,WeatherDisplay:10.37,2013-04-13 06:10:00,
2013-04-12 23:15:00,0.0,-69.2,29.81,WSW,247,9.2,9.2,2,0.00,CLR,,0.00,WeatherDisplay:10.37,2013-04-13 06:15:00,
2013-04-12 23:20:00,0.0,-69.2,29.82,SSW,212,4.6,4.6,2,0.00,CLR,,0.00,WeatherDisplay:10.37,2013-04-13 06:20:00,
2013-04-12 23:25:00,0.0,-69.2,29.81,SW,216,4.6,0.0,2,0.00,CLR,,0.00,WeatherDisplay:10.37,2013-04-13 06:25:00,
2013-04-12 23:30:00,0.0,-69.2,29.82,SSW,208,5.8,0.0,2,0.00,CLR,,0.00,WeatherDisplay:10.37,2013-04-13 06:30:00,
2013-04-12 23:35:00,0.0,-69.2,29.82,West,272,8.1,8.1,2,0.00,CLR,,0.00,WeatherDisplay:10.37,2013-04-13 06:35:00,
2013-04-12 23:40:00,0.0,-69.2,29.82,West,261,10.4,10.4,2,0.00,CLR,,0.00,WeatherDisplay:10.37,2013-04-13 06:40:00,
2013-04-12 23:45:00,0.0,-69.2,29.83,West,268,6.9,6.9,2,0.00,CLR,,0.00,WeatherDisplay:10.37,2013-04-13 06:45:00,
2013-04-12 23:51:00,0.0,-69.2,29.83,West,270,9.2,9.2,2,0.00,CLR,,0.00,WeatherDisplay:10.37,2013-04-13 06:51:00,
2013-04-12 23:56:00,0.0,-69.2,29.84,West,260,8.1,8.1,2,0.00,CLR,,0.00,WeatherDisplay:10.37,2013-04-13 06:56:00,